Theta_e
341 341 343 347 346 345 345 344 342 342 341 342 343 345 348 347 346 345 344 343 342 343 343 344 343 345 345 344 344 342 342 343 342 343 342 342 341 341 341 341 343 343 343 344 344 345 347 348 348 347 348 348 348 348 348 348 348 348 348 347 347 346 346 346 345 345 344 345 346 346 345 346 347 347 347 346 345 344 342 342 342 339 338 340 344
341 342 343 344 347 343 343 343 342 342 341 342 343 343 347 347 347 344 343 343 342 342 342 342 346 348 347 345 344 342 341 341 341 340 341 342 342 342 342 342 342 341 342 342 343 344 345 346 347 347 347 347 346 346 347 346 346 345 345 345 345 344 344 345 344 343 343 343 344 343 343 344 343 344 346 346 345 344 341 341 341 337 337 341 341
343 343 343 344 345 345 343 342 342 341 343 342 343 345 346 346 346 344 343 342 342 343 343 345 347 347 347 346 345 344 344 343 342 341 342 341 340 341 340 340 340 341 342 341 342 341 342 344 345 346 345 344 345 346 346 346 346 345 345 345 344 344 344 344 343 342 342 342 342 342 341 343 345 345 346 345 343 342 340 342 341 341 338 341 340
342 342 343 343 344 344 343 343 342 342 342 343 346 346 347 347 345 343 343 340 338 339 341 343 347 347 347 346 345 345 347 347 346 344 343 341 340 341 341 341 340 340 341 341 340 340 340 340 342 343 343 343 345 345 345 345 345 345 345 344 344 344 344 343 342 341 341 340 340 339 337 335 340 341 345 343 341 343 340 340 340 340 341 340 339
342 342 342 341 340 343 343 342 342 342 342 343 347 347 347 346 344 343 343 341 341 340 341 342 343 346 346 345 345 345 345 345 346 345 345 344 343 342 341 341 341 341 340 341 340 340 340 339 339 341 342 343 344 345 345 344 345 345 344 344 344 343 343 342 341 340 340 339 339 337 334 335 336 340 344 342 342 339 339 338 338 339 338 338 338
341 342 342 340 339 341 344 342 341 341 342 342 346 346 347 346 344 343 342 341 341 342 341 341 343 344 345 346 345 344 343 343 343 342 341 341 342 342 341 341 341 341 341 341 341 340 340 341 340 339 342 343 343 344 344 344 344 344 344 343 343 343 342 341 340 339 339 338 337 334 334 334 335 338 342 342 342 339 338 338 339 339 337 337 337
342 342 341 340 339 340 342 343 343 343 342 342 344 347 346 346 345 343 341 341 341 339 339 340 341 342 342 343 343 343 342 340 339 338 337 337 339 338 339 339 339 339 340 340 341 341 341 341 341 340 341 342 343 343 344 344 344 344 343 343 342 341 341 340 339 338 337 335 333 333 333 334 335 337 340 341 342 341 339 339 338 337 337 337 337
342 342 341 340 338 341 343 344 343 343 343 343 344 347 347 347 347 345 342 342 341 341 337 337 341 341 342 340 342 343 343 341 340 342 342 342 339 339 339 339 340 340 340 341 341 342 341 340 341 341 341 343 343 343 342 343 343 343 343 343 341 340 340 339 338 338 336 332 331 332 332 333 334 335 340 340 340 340 339 338 337 336 336 334 333
341 341 341 340 339 341 342 343 343 343 343 343 343 346 346 346 346 346 343 341 341 340 339 342 341 340 338 341 343 343 343 343 343 343 343 343 343 343 342 341 342 342 342 341 341 342 341 342 341 340 341 342 342 342 342 342 343 343 342 342 341 340 339 338 337 336 334 332 331 330 330 330 332 333 339 339 338 336 335 334 335 335 335 334 332
340 340 341 339 338 339 342 342 343 343 343 343 343 346 346 346 346 346 343 341 340 339 340 340 339 338 340 344 345 344 344 344 343 342 342 343 343 343 343 343 342 343 342 343 342 343 342 341 341 341 341 343 342 342 342 342 342 341 342 341 341 340 338 337 336 334 332 332 332 332 334 335 333 333 336 338 338 337 335 333 335 334 332 332 332
339 340 341 339 338 340 343 343 344 344 343 342 342 346 347 346 346 345 343 342 342 341 340 339 338 338 341 345 344 344 343 342 341 341 340 340 340 341 341 340 340 341 340 341 341 341 341 341 341 341 341 342 341 341 341 341 341 340 340 340 339 338 337 335 333 331 330 330 330 331 334 336 332 333 338 337 336 334 335 334 334 332 332 331 331
340 341 340 339 343 340 343 343 343 343 343 343 343 343 346 346 346 345 343 342 342 341 339 337 337 337 338 343 342 341 339 339 338 339 340 340 340 340 340 340 339 340 339 339 340 340 341 340 340 340 340 341 341 341 340 340 340 340 339 338 338 337 335 334 330 329 329 329 329 329 328 329 330 333 336 337 336 334 332 332 332 332 331 330 329
339 340 340 340 339 340 342 343 343 344 343 343 343 344 346 346 345 344 342 342 341 340 339 338 338 338 337 338 338 338 338 338 338 338 339 340 340 340 340 339 340 339 340 339 339 339 340 341 341 340 340 340 340 340 340 340 339 339 339 338 337 336 334 332 329 328 328 327 327 328 328 328 329 334 335 334 333 332 331 330 331 330 330 329 328
339 340 340 340 339 343 339 340 342 343 344 343 343 342 343 345 344 344 342 341 340 339 338 338 337 337 337 336 336 337 337 339 339 339 339 339 339 339 339 339 338 339 338 338 338 338 339 340 340 340 339 339 339 339 339 339 339 338 339 339 337 335 332 330 330 327 327 326 327 326 326 328 329 334 334 333 333 331 330 329 329 328 328 326 326
339 340 340 340 340 339 341 338 341 341 342 344 343 342 341 340 342 343 342 340 340 339 338 338 336 336 336 336 337 336 337 338 338 339 339 339 339 338 338 338 339 338 338 338 338 338 338 339 339 339 339 339 338 338 338 338 337 338 337 337 335 333 330 328 327 326 325 325 324 325 324 325 331 331 331 332 329 328 327 327 327 328 329 329 328
340 340 340 340 339 339 339 341 336 337 340 341 342 342 343 342 344 343 343 340 340 339 338 337 341 341 337 336 338 339 339 341 342 339 339 338 338 338 337 338 338 338 338 338 338 338 338 339 339 338 337 338 338 337 337 337 336 336 335 334 332 330 328 326 325 324 323 323 323 323 323 326 331 331 329 330 328 328 330 329 328 326 327 327 324
341 340 340 339 339 339 339 338 335 333 334 335 337 339 341 343 343 343 343 342 340 338 338 341 341 343 342 342 340 339 339 340 340 341 340 338 338 338 338 337 337 337 338 338 339 338 339 338 338 337 337 337 337 337 336 336 336 335 334 333 330 328 325 323 323 321 322 323 323 323 323 323 328 330 330 329 329 327 326 326 326 324 324 324 323
340 340 339 339 339 338 338 336 335 336 334 333 332 337 340 341 341 342 342 341 341 341 340 339 339 339 340 340 339 339 339 339 339 340 340 339 338 338 338 338 338 337 337 337 337 338 337 337 337 336 336 336 336 335 335 335 334 334 332 331 328 327 325 323 321 321 321 323 320 322 322 329 329 329 328 327 327 327 327 327 326 325 323 324 324
339 340 340 339 339 338 338 336 336 336 335 334 333 334 334 337 338 338 339 340 340 339 337 335 335 336 336 335 333 332 331 332 335 336 336 336 335 334 337 337 336 336 336 336 336 336 336 336 335 335 335 335 335 334 334 334 334 333 331 328 324 322 321 321 320 320 319 319 319 320 321 329 327 326 327 327 330 327 325 325 324 323 321 323 322
337 338 339 339 339 338 338 337 336 336 335 334 333 332 331 331 334 335 336 337 337 336 334 331 329 329 329 329 327 326 325 325 326 329 331 334 332 330 333 335 335 335 335 335 335 334 335 335 335 335 334 333 332 332 332 332 332 331 329 326 322 320 319 318 319 318 318 319 318 317 328 330 328 326 329 328 325 326 326 325 324 322 322 325 324
335 335 337 338 338 338 338 337 336 337 335 335 334 333 330 328 328 329 331 333 333 332 330 324 322 322 323 322 324 325 324 325 326 326 324 326 325 327 332 335 335 334 334 334 334 334 334 333 334 333 332 331 328 327 327 329 330 329 326 322 319 320 319 318 318 317 315 316 318 320 329 330 327 326 326 326 327 326 325 323 322 322 326 324 323
330 332 334 337 337 338 338 337 336 336 335 337 336 333 331 330 329 328 327 327 326 325 325 326 328 323 321 324 325 325 324 324 326 330 325 326 325 325 329 334 334 334 334 333 333 332 332 333 333 333 332 330 324 319 319 323 324 325 322 319 320 317 319 317 316 316 316 317 318 323 330 326 326 326 327 322 326 326 324 322 322 326 323 322 322
328 329 331 335 337 338 338 338 337 337 337 336 336 333 332 332 330 329 328 325 329 328 327 327 324 324 323 324 323 323 324 324 325 326 325 322 324 324 328 330 331 331 332 332 332 331 331 332 332 332 331 327 318 317 318 317 316 319 318 319 317 320 319 317 316 316 317 317 317 327 330 328 327 325 324 325 327 325 322 322 321 321 323 321 321
329 329 331 333 336 336 338 338 337 338 337 336 335 334 333 333 332 330 328 328 328 328 328 327 325 324 325 324 324 323 325 325 326 326 326 322 322 322 325 326 327 327 327 327 329 329 329 329 329 328 325 320 319 317 318 317 317 317 318 317 317 318 319 317 315 316 316 319 318 326 330 327 326 325 324 324 326 323 320 325 324 321 319 320 320
330 329 330 332 334 336 336 337 338 338 337 336 334 333 333 332 332 331 330 328 328 328 328 328 327 326 326 326 324 324 325 324 324 323 322 322 321 321 322 322 321 320 321 318 318 318 318 318 316 317 315 317 317 319 319 318 317 318 317 317 317 319 319 318 317 317 317 316 317 324 327 327 324 324 325 324 325 323 321 322 321 321 318 318 320
329 329 329 331 332 334 335 336 338 337 337 336 334 333 333 332 331 331 330 329 329 328 327 327 328 328 326 326 324 325 324 324 323 323 322 322 321 320 322 321 318 319 319 319 316 316 316 316 315 317 316 316 316 316 318 317 316 316 318 317 316 317 319 318 317 318 316 315 316 322 324 327 325 324 324 323 322 323 321 321 321 320 318 318 319
327 329 330 330 333 333 334 335 337 336 336 337 336 333 333 333 332 331 329 328 327 327 327 326 329 328 325 324 323 323 323 323 322 321 321 322 322 321 320 320 321 320 320 318 317 317 317 316 316 318 315 315 315 315 316 316 315 316 315 315 315 316 316 318 317 316 315 315 316 320 323 326 326 326 324 324 322 323 321 319 321 320 318 318 319
327 328 329 330 330 333 334 333 335 336 335 337 336 334 334 333 332 330 329 328 326 326 327 326 328 329 326 326 323 322 323 321 323 321 320 322 322 322 321 319 321 319 320 319 318 316 315 317 317 315 314 313 316 316 315 317 316 314 316 316 316 314 316 316 318 317 316 315 315 317 321 323 324 328 324 324 323 322 322 320 320 321 320 319 318
326 327 329 329 330 332 334 333 333 335 335 335 335 335 334 333 332 331 329 327 328 327 328 327 327 327 327 326 323 321 320 321 322 322 320 322 322 322 320 320 320 321 318 316 318 317 316 314 315 315 313 314 314 315 314 315 314 314 315 316 316 315 314 315 316 315 315 315 314 314 319 322 325 328 325 324 325 325 324 322 320 321 320 321 319
326 326 328 329 330 331 333 333 333 334 334 334 333 334 333 332 332 331 331 327 328 328 327 326 327 327 325 325 324 323 322 321 322 322 320 321 321 321 320 319 319 319 317 318 316 316 315 314 313 314 313 313 313 316 312 313 313 313 313 314 315 315 313 314 315 314 315 315 315 314 316 319 323 326 327 324 325 325 324 322 322 322 322 321 320
326 325 327 327 329 330 332 333 332 332 333 333 331 332 331 331 332 332 330 329 329 329 327 327 326 326 326 326 325 324 323 322 322 323 321 320 320 320 319 319 318 317 318 318 318 317 316 316 316 314 314 314 314 314 313 315 312 312 312 313 315 313 314 313 313 314 314 314 315 314 315 317 320 324 327 325 325 326 326 325 324 322 322 322 321
326 326 327 328 329 330 332 332 333 332 332 332 331 331 331 331 332 332 331 330 330 328 328 327 324 325 325 325 325 324 323 321 322 323 322 321 321 319 318 317 319 316 318 318 317 317 317 316 314 314 314 315 315 311 315 314 312 313 311 312 311 313 313 312 312 313 314 314 315 315 315 315 316 320 323 327 326 327 327 325 326 325 323 324 324
327 328 327 327 329 330 331 331 333 331 332 332 331 331 331 331 331 332 331 331 330 329 329 328 327 326 324 325 325 325 325 324 321 322 321 321 321 320 319 318 318 317 317 316 315 314 313 312 313 313 313 312 312 311 312 312 311 311 311 313 311 312 310 312 311 311 313 313 314 314 314 314 314 315 317 321 326 328 328 328 329 327 326 325 324
326 327 327 328 330 332 332 332 332 331 331 332 332 331 330 331 330 331 331 331 330 329 328 328 327 327 326 325 325 324 324 325 322 320 321 321 321 321 320 319 318 316 317 316 315 314 314 311 311 312 314 312 310 309 310 311 311 309 308 311 311 314 311 310 309 309 309 311 309 312 313 312 313 313 315 317 319 322 327 328 328 328 326 325 325
324 326 327 327 329 331 332 333 330 331 330 331 331 331 330 330 329 330 331 332 331 330 328 328 328 328 328 325 325 324 323 322 320 320 320 321 321 320 319 320 319 317 317 315 315 314 314 314 310 312 310 310 309 308 309 310 310 313 312 308 313 313 309 313 309 308 308 306 306 306 308 309 312 312 313 313 312 315 321 325 327 326 327 326 326
326 326 327 327 329 330 330 331 329 331 331 331 331 332 332 330 329 327 329 331 332 331 330 329 328 327 327 327 326 326 326 324 321 321 319 319 320 320 320 320 318 317 316 314 315 315 314 313 311 312 310 311 309 311 308 309 310 311 310 310 310 310 310 307 308 307 306 305 306 306 307 308 309 309 311 311 313 314 315 318 322 324 325 326 326
327 325 326 327 328 329 328 330 329 330 331 331 330 331 332 331 330 329 329 330 331 331 331 331 329 327 327 327 327 327 326 327 326 323 320 319 321 322 321 321 319 317 317 316 315 315 314 314 311 311 311 309 309 309 309 309 310 309 309 308 307 307 308 307 306 306 305 306 307 307 308 309 309 308 308 307 309 311 312 314 317 320 321 324 327
327 326 327 328 327 328 328 329 329 330 331 331 330 331 331 331 330 330 328 329 330 331 332 332 330 328 326 327 326 327 327 327 327 327 323 323 323 323 323 323 322 320 318 317 317 316 314 313 313 310 311 310 308 309 309 310 309 310 308 307 306 303 303 303 302 302 304 307 307 307 308 309 308 309 309 308 308 308 308 310 311 312 312 316 322
327 326 327 328 327 327 327 326 328 328 331 331 329 329 330 330 330 330 328 329 328 330 331 331 331 330 329 328 328 329 327 328 328 327 326 325 323 322 323 323 323 320 318 317 316 315 314 313 312 310 309 311 311 310 310 309 309 307 307 305 302 301 301 301 300 302 302 304 305 307 306 308 308 308 308 308 307 306 306 307 307 308 310 312 318
326 326 326 327 327 327 327 326 327 328 330 330 329 328 326 326 328 327 328 328 328 326 328 329 329 330 329 328 329 330 329 328 327 326 325 323 322 322 323 323 322 320 318 316 315 315 314 311 310 311 311 311 311 309 305 305 303 304 305 304 300 300 302 302 303 303 303 302 303 303 304 306 305 306 306 306 305 305 305 306 306 307 308 309 312
325 326 326 327 328 327 326 326 327 328 328 328 328 327 325 323 325 327 327 328 327 326 327 327 327 328 329 328 328 328 328 328 327 327 326 322 323 321 321 319 320 320 319 317 317 315 313 312 312 311 312 311 310 304 303 304 304 303 303 303 304 305 305 304 304 303 303 303 302 302 302 302 303 304 305 305 304 303 303 304 306 306 306 306 307
322 325 326 327 328 327 327 327 327 328 328 328 328 328 328 327 325 325 326 326 326 325 326 325 327 327 327 328 328 328 327 327 326 327 325 324 323 321 320 320 320 320 320 319 317 313 313 312 312 310 310 311 309 306 305 307 303 304 304 304 305 306 306 305 304 304 303 302 301 301 301 301 302 303 303 303 303 302 303 303 302 303 304 305 306
323 325 326 326 327 326 327 327 328 328 328 328 327 327 327 326 325 321 324 319 323 327 327 326 326 326 325 326 328 328 328 327 326 325 326 325 324 322 321 321 321 320 318 317 316 315 314 312 310 310 306 303 305 304 306 308 307 304 304 303 302 303 303 299 302 302 302 302 300 300 301 301 301 302 302 301 302 302 302 302 302 302 303 304 305
321 323 324 325 327 325 326 327 327 328 327 327 325 327 326 325 324 322 323 324 321 321 323 323 325 324 324 324 326 328 328 328 326 325 325 325 324 323 322 321 321 320 319 318 316 315 314 313 311 309 310 309 307 307 306 307 309 307 303 303 301 301 301 303 299 302 300 302 301 300 300 300 301 301 300 300 301 301 301 301 301 302 302 303 305
321 322 323 324 327 325 326 327 327 327 327 325 324 325 323 321 321 318 318 317 317 318 317 317 321 322 320 319 323 324 326 325 325 324 322 324 324 325 324 323 322 320 320 319 317 316 315 314 312 311 311 312 311 309 307 307 307 310 309 301 300 299 300 302 303 306 300 300 300 300 300 300 300 300 299 299 299 300 301 301 301 302 302 303 303
319 320 322 324 325 324 324 324 325 326 326 324 324 324 323 323 321 320 318 317 318 315 319 320 317 318 322 318 318 322 324 324 324 324 324 323 325 326 325 324 323 322 319 319 318 315 314 313 313 313 311 312 313 310 307 305 306 307 309 311 311 308 304 302 304 302 305 302 300 298 299 300 299 299 299 299 299 300 300 300 301 301 301 301 302
316 317 316 319 320 322 322 323 324 325 325 324 322 322 322 323 323 322 320 319 319 315 311 312 316 314 314 317 319 320 324 324 324 326 326 326 327 327 326 324 323 322 318 319 316 316 317 315 314 313 313 312 311 310 310 309 304 304 306 307 308 308 306 304 303 302 301 302 300 298 299 298 299 299 299 299 300 301 301 300 300 300 300 301 301
309 306 312 315 317 319 320 321 321 321 323 323 321 322 322 321 321 320 318 317 317 315 312 315 315 316 315 317 315 318 321 324 324 324 326 327 326 326 325 324 322 320 317 318 319 318 317 314 313 314 313 311 311 310 310 311 306 306 304 304 304 305 306 305 305 303 301 299 302 304 302 299 298 298 300 301 301 301 301 300 300 300 300 300 299
302 304 309 313 314 316 317 316 318 319 318 320 321 319 320 319 319 317 315 314 314 313 308 307 311 310 314 310 311 312 314 317 320 321 321 321 319 323 324 323 322 322 317 318 318 317 317 315 313 312 312 311 311 311 311 310 308 309 304 302 303 303 304 304 303 302 299 299 300 302 304 298 297 300 300 300 301 301 301 301 301 300 299 299 298
301 301 301 303 307 310 314 315 315 314 316 316 318 316 316 316 316 315 315 311 309 308 309 309 308 309 310 309 309 309 312 313 313 314 317 318 319 319 321 321 321 321 316 318 318 317 316 316 316 315 313 312 312 311 311 312 312 311 309 306 302 301 301 301 301 301 300 301 299 301 303 303 302 305 302 299 299 300 300 300 299 300 299 299 299
297 299 300 302 303 309 311 314 312 311 312 314 316 315 315 316 316 315 314 312 309 311 309 307 306 306 308 308 308 307 306 309 310 311 312 312 315 316 319 319 319 317 316 318 317 317 317 316 316 315 314 313 313 312 310 310 311 310 309 308 307 305 305 302 301 300 300 297 297 298 300 301 301 302 305 303 301 301 301 300 299 299 299 299 299
Wind_Speed
2 5 3 8 10 11 12 12 12 12 14 12 13 14 14 13 13 13 14 14 17 17 17 16 17 18 20 20 20 20 18 19 20 19 19 19 18 17 17 18 18 19 18 18 17 18 19 19 19 20 21 21 22 21 21 21 20 20 20 20 21 22 21 21 21 21 21 22 22 21 20 19 20 21 21 21 20 19 17 18 15 13 11 16 21
7 4 4 5 10 12 12 12 13 14 14 13 13 13 13 12 12 13 13 15 16 16 17 17 18 18 19 20 20 19 18 19 19 19 19 19 19 18 19 19 19 19 18 18 18 18 19 19 20 20 20 20 21 21 20 19 18 17 17 17 18 20 20 21 20 20 20 20 20 21 22 21 20 21 22 21 21 20 18 19 18 11 9 19 21
7 5 3 7 10 11 12 13 13 14 13 11 11 12 13 12 13 13 12 16 17 16 16 17 18 18 18 19 18 18 18 18 19 19 19 19 18 18 19 20 19 20 20 20 19 19 18 19 19 20 20 20 19 18 18 18 17 17 18 19 19 20 21 21 20 19 19 18 18 18 18 20 19 21 22 22 21 20 18 20 20 17 13 21 19
9 4 5 8 10 10 12 13 13 13 12 13 16 13 14 12 14 13 14 16 16 15 16 16 19 18 18 19 19 19 19 19 20 20 19 19 19 19 18 18 19 19 19 20 20 20 19 18 19 19 18 19 18 18 17 17 17 18 18 20 21 21 21 20 19 18 18 17 17 14 9 8 12 20 22 21 21 21 18 21 21 21 21 20 21
8 5 6 5 5 9 12 13 13 13 12 14 15 15 14 13 14 14 14 16 16 16 16 15 17 18 18 19 19 19 19 20 20 20 19 18 19 19 18 18 19 19 20 19 20 20 19 18 17 17 17 17 17 17 17 17 17 18 19 20 21 21 20 19 18 18 17 16 15 13 7 8 9 17 20 21 21 19 19 20 20 20 20 21 20
8 6 6 5 5 6 11 12 13 13 12 13 15 13 13 13 15 14 14 15 16 16 16 16 16 17 18 18 18 18 18 18 18 18 17 18 19 19 18 18 19 19 19 19 19 20 19 19 18 17 16 17 17 17 17 18 17 17 18 20 20 20 19 19 18 17 15 15 12 8 8 7 7 9 21 19 20 18 19 20 20 19 19 20 19
10 6 6 5 4 6 10 13 13 13 13 11 14 14 13 13 13 15 14 14 15 15 15 15 15 16 17 17 18 18 18 17 16 16 16 17 18 17 17 17 18 18 19 19 19 19 18 19 18 18 17 17 17 17 17 18 18 19 18 19 20 19 19 18 16 15 14 9 7 7 6 6 6 7 18 17 20 19 20 20 19 18 18 18 19
8 7 6 4 4 8 11 13 13 13 12 12 13 14 13 12 11 11 14 13 15 14 13 14 15 15 15 16 17 17 18 17 17 18 18 17 17 16 17 16 16 17 17 18 18 18 18 18 18 18 17 16 16 17 18 19 20 21 20 19 20 20 19 18 16 14 13 8 7 6 6 6 7 6 17 18 18 19 19 18 18 17 17 18 14
9 8 7 5 5 10 11 11 14 14 13 11 13 14 13 12 11 10 13 14 13 14 14 16 15 14 14 16 17 17 17 17 17 17 17 17 16 17 17 17 18 17 18 18 18 18 18 18 17 17 17 16 16 17 18 20 20 20 20 20 19 18 18 17 15 13 9 7 7 7 7 6 6 7 15 18 19 18 17 13 12 16 17 14 16
9 9 7 5 5 9 10 11 13 14 13 12 13 15 15 13 11 10 12 14 13 13 13 14 15 14 15 15 16 17 17 16 17 17 17 17 17 17 16 16 16 17 18 17 17 17 17 17 16 16 16 15 16 17 17 19 19 19 19 19 19 18 17 15 14 11 8 7 7 7 7 9 5 7 14 17 18 18 15 11 9 10 12 16 17
10 9 7 5 6 10 11 12 12 12 13 12 12 15 14 13 12 11 12 14 14 14 14 14 14 14 16 17 16 16 16 16 15 15 15 16 16 16 16 16 16 15 16 16 16 17 17 16 16 15 15 15 15 16 16 17 18 19 19 19 18 17 16 14 12 7 7 7 7 5 8 12 6 6 15 17 17 16 11 12 13 15 15 16 16
10 8 7 5 8 10 10 10 12 13 12 12 11 13 14 13 12 12 13 13 13 14 14 14 13 13 14 16 16 15 16 15 13 14 14 15 15 15 15 15 16 15 16 16 16 17 17 17 16 15 14 14 14 15 15 16 16 16 18 19 18 17 15 13 9 7 6 7 6 5 4 4 4 10 17 16 16 16 14 15 15 15 15 15 13
10 8 7 5 4 9 10 10 10 11 12 12 12 13 14 13 12 13 13 12 13 13 13 14 14 12 12 13 13 14 14 14 13 14 14 14 14 14 14 14 14 15 14 15 15 15 15 15 15 14 13 13 13 14 14 14 14 13 13 15 16 14 12 11 7 7 6 5 5 6 6 5 5 14 15 16 15 15 15 14 15 15 15 14 13
10 9 7 5 5 10 9 9 9 11 11 11 12 11 12 13 14 13 14 12 12 12 13 14 13 12 12 12 13 13 13 14 13 14 14 13 13 13 14 14 14 14 14 15 15 15 15 15 15 13 12 12 13 13 13 14 13 14 12 12 13 12 11 9 8 6 6 5 5 5 4 5 6 14 15 15 14 14 14 15 15 14 13 11 13
11 10 8 6 5 5 9 9 9 10 10 10 10 11 11 10 12 13 13 12 12 11 12 13 13 12 11 12 12 12 13 12 13 13 13 13 13 14 13 13 14 14 14 14 14 14 14 14 15 14 12 12 12 13 12 12 13 13 13 10 10 11 10 6 5 5 5 5 5 5 5 4 11 13 13 14 13 12 11 11 12 15 15 15 14
13 11 8 6 5 6 5 7 9 9 9 9 9 10 10 10 13 12 12 12 12 12 11 12 12 11 11 12 14 13 13 13 12 11 11 12 12 12 13 14 14 14 14 14 14 14 14 14 14 13 12 11 11 11 11 11 12 11 12 11 10 9 10 6 5 4 6 6 5 5 4 4 14 14 13 13 10 14 16 16 14 13 12 12 12
11 11 9 8 6 5 6 5 6 9 9 9 9 9 9 10 10 12 11 11 11 11 11 13 12 12 12 12 13 12 12 12 12 12 12 11 11 11 12 13 14 14 14 14 14 14 14 13 13 12 11 11 10 10 10 10 10 10 9 9 10 9 10 9 6 5 5 5 4 4 5 4 10 12 12 12 13 12 10 10 11 10 11 12 11
10 12 9 8 6 5 6 6 6 5 5 7 9 10 9 10 10 10 10 10 10 10 11 12 11 10 9 10 10 10 12 12 11 11 12 12 12 12 12 13 13 14 14 14 13 13 13 13 12 11 10 10 10 9 9 9 10 9 8 9 10 10 12 10 5 5 5 5 5 4 4 7 11 12 12 12 10 12 13 13 11 11 11 11 13
9 11 9 8 7 6 6 5 5 5 5 5 4 7 10 10 10 10 10 11 10 11 11 11 12 10 9 10 10 10 11 11 11 11 11 11 11 10 10 10 13 12 12 12 12 12 12 11 11 10 9 9 9 8 8 8 8 8 9 10 9 7 10 7 5 5 4 4 4 5 4 10 11 11 8 10 16 12 9 10 11 10 6 9 9
9 10 9 8 8 7 6 6 5 5 5 5 5 5 8 10 10 10 10 10 11 10 11 11 10 10 10 10 10 8 8 8 11 9 11 10 9 7 9 9 11 11 11 11 11 11 11 10 9 9 8 9 8 7 6 7 7 7 8 9 9 6 6 5 5 4 5 4 3 2 2 8 10 6 11 13 7 10 11 10 9 7 6 13 11
6 9 9 8 8 8 8 6 6 6 6 6 5 5 6 9 8 10 10 10 10 10 10 10 9 9 8 8 8 5 5 5 6 5 8 6 8 9 9 10 11 10 10 10 10 9 9 9 8 7 7 7 6 5 4 5 5 6 7 8 6 4 5 6 5 4 4 3 3 3 8 5 10 9 7 10 12 10 9 9 5 6 14 10 8
6 7 7 9 8 8 9 8 6 7 6 6 5 5 5 6 6 5 5 7 8 8 6 5 6 4 7 6 5 5 5 5 5 5 5 5 6 10 9 9 9 8 8 9 9 8 7 6 5 6 6 5 4 3 1 3 5 5 6 7 5 3 4 6 5 5 4 3 3 2 5 7 5 9 11 5 9 11 8 6 5 12 8 6 8
5 6 6 9 8 8 8 8 7 7 8 6 5 5 6 5 4 5 5 6 6 5 4 4 4 4 4 4 4 3 4 4 5 5 5 7 7 10 10 9 9 10 10 9 7 6 6 6 5 4 3 3 3 1 1 1 2 5 4 4 2 4 5 5 5 5 4 3 3 5 5 6 13 9 6 7 11 8 8 6 6 5 10 7 7
6 6 7 6 9 8 9 9 8 8 8 6 6 6 5 5 5 5 5 5 5 5 4 4 3 4 4 3 3 3 4 5 7 11 8 5 5 8 9 9 9 9 9 6 5 5 3 3 2 3 2 2 2 2 3 1 2 2 3 2 1 4 5 4 4 4 3 3 2 4 1 8 6 7 6 5 8 8 3 9 10 7 4 4 7
6 5 4 5 8 9 8 8 8 8 9 7 7 6 6 5 5 5 5 5 5 5 5 4 4 4 4 3 2 4 5 5 5 5 5 5 4 4 4 5 4 4 6 3 4 2 1 0 1 1 2 1 2 3 3 2 2 3 2 2 1 4 4 5 4 4 3 3 3 6 4 3 3 3 5 3 8 7 3 5 4 4 3 1 7
5 6 6 5 6 8 9 8 9 8 9 8 8 8 7 6 6 6 6 5 6 5 5 5 5 4 3 4 4 5 5 6 5 5 5 5 5 5 5 4 4 4 3 4 3 3 2 2 2 4 3 2 3 3 4 3 2 2 3 2 1 3 5 5 6 4 3 3 3 7 5 2 4 2 3 3 2 3 5 4 6 4 2 1 6
7 7 6 5 6 6 7 8 9 9 9 8 7 7 7 7 7 6 7 6 5 5 5 5 6 5 3 3 6 5 5 6 5 5 5 5 5 5 5 5 4 4 4 5 4 4 4 4 3 3 3 2 3 3 4 3 2 0 1 1 2 2 2 5 5 5 3 3 4 6 5 3 2 4 4 5 3 5 6 3 7 3 3 3 5
7 8 7 7 7 8 7 8 9 9 8 8 8 8 6 7 7 7 7 7 6 6 6 6 6 7 4 5 5 6 6 5 5 5 5 5 5 5 5 5 5 5 5 5 5 4 4 4 4 3 2 2 1 1 1 0 0 2 0 0 0 3 1 2 5 5 5 4 4 5 6 5 1 3 4 5 5 5 6 5 1 5 4 5 2
10 9 8 8 8 8 8 8 8 10 8 8 8 7 7 7 7 8 7 7 6 6 7 6 6 6 5 5 4 5 5 6 6 5 5 6 5 5 5 6 6 6 5 4 5 5 5 5 4 4 3 1 1 1 2 2 1 1 1 1 1 0 1 2 3 4 4 5 4 4 5 4 3 4 6 6 6 10 9 5 5 6 4 6 6
10 10 9 9 8 8 9 9 8 8 8 8 7 7 7 6 7 7 7 8 7 7 5 6 6 6 6 5 6 5 6 7 6 6 5 6 6 5 5 5 6 6 5 5 6 5 4 3 3 3 3 3 2 4 3 3 3 3 1 2 2 2 1 3 3 4 4 4 4 4 6 6 5 5 6 7 10 9 7 6 8 8 8 6 7
9 10 10 9 8 8 9 8 7 7 7 7 6 8 7 6 6 6 6 7 7 7 6 6 6 6 7 5 5 5 5 5 6 6 6 5 5 5 5 5 5 6 6 5 5 5 5 5 5 5 4 4 5 4 4 4 3 3 2 2 4 3 2 1 3 3 3 4 4 4 5 8 7 7 8 10 12 12 10 9 10 7 8 8 8
11 11 10 8 9 10 10 9 8 8 8 7 7 7 7 7 6 6 6 6 6 6 6 5 6 6 5 5 5 6 5 4 5 5 6 5 5 5 4 4 6 4 5 5 5 5 5 5 4 4 4 4 5 3 4 4 4 3 2 3 2 2 3 2 2 4 4 4 5 5 5 6 8 9 10 11 13 13 14 11 13 10 10 12 12
8 10 11 10 12 10 10 9 9 8 9 9 8 6 6 6 7 7 6 6 6 6 6 6 5 6 5 6 5 5 5 5 5 4 4 6 6 5 5 4 5 4 4 4 4 4 4 3 4 2 3 1 2 3 2 3 3 3 3 4 3 3 2 1 3 2 4 4 6 6 6 6 5 9 12 11 11 12 13 13 12 13 13 15 13
8 8 10 12 10 8 8 7 8 9 9 8 7 7 6 6 7 7 7 7 6 6 6 6 6 6 5 5 5 5 6 5 4 4 4 5 5 6 6 5 4 4 4 4 5 5 4 3 4 2 3 2 3 2 2 4 4 3 2 4 4 5 4 3 3 3 2 3 4 4 6 6 6 6 7 11 12 12 11 14 13 14 14 14 14
7 7 11 11 11 10 8 8 8 8 8 8 8 7 5 6 6 6 7 7 7 7 6 6 6 6 6 6 6 5 5 4 3 3 4 5 6 6 6 6 6 4 5 5 6 4 4 5 3 4 3 3 2 3 2 4 4 5 4 3 5 5 4 5 4 3 2 3 2 3 4 5 7 6 6 6 9 13 14 13 14 13 14 16 16
8 8 9 9 11 10 10 9 8 9 9 9 7 7 7 5 5 5 6 6 6 7 7 7 6 6 6 6 6 7 6 4 4 3 2 3 4 6 6 6 5 5 6 5 4 5 5 4 3 3 4 5 3 4 2 4 4 5 4 4 5 4 5 4 4 4 3 3 4 4 4 4 4 6 6 6 6 7 13 13 11 12 13 15 17
9 8 9 9 10 11 12 11 11 10 9 8 7 6 7 6 5 5 5 6 7 7 6 6 6 6 6 6 6 7 7 6 6 4 4 3 4 4 5 6 5 5 5 5 6 6 5 5 4 4 4 5 4 4 4 5 5 4 4 4 5 4 5 5 4 4 3 4 4 4 4 5 5 5 5 5 6 6 9 12 13 14 13 13 15
9 9 9 11 11 11 11 11 11 10 9 9 8 8 7 7 5 5 5 6 7 6 6 6 6 6 5 6 6 6 7 7 7 7 4 4 5 4 4 5 6 6 6 5 6 5 5 5 5 4 5 4 5 5 6 5 5 5 5 5 4 3 4 4 3 2 4 5 5 5 6 6 5 6 6 6 6 5 5 7 10 11 12 11 14
8 9 8 9 8 8 9 10 10 9 9 9 8 7 7 6 5 6 6 6 5 6 6 6 6 6 6 5 6 6 6 6 7 7 8 8 6 5 5 4 4 5 5 5 3 3 3 4 5 5 3 5 5 5 6 6 5 5 5 5 3 4 3 3 3 4 5 6 7 7 5 7 6 7 7 7 6 5 6 6 6 6 8 12 12
9 9 9 8 9 8 7 8 9 9 8 8 7 7 6 7 7 5 7 7 7 6 6 7 6 7 7 6 6 6 7 7 6 6 6 7 6 6 5 5 4 4 5 5 5 5 7 5 5 6 5 4 4 4 3 3 2 3 5 5 4 3 4 4 5 5 6 6 7 6 7 7 6 7 7 7 6 6 6 7 6 7 6 9 13
8 9 9 9 10 11 10 11 9 10 9 9 9 9 9 7 6 9 9 8 7 6 6 6 6 7 7 7 7 7 6 7 7 7 7 7 7 6 5 4 4 5 5 6 6 8 7 6 5 5 6 5 5 3 3 3 2 3 4 6 6 5 7 7 8 8 9 8 7 7 7 6 7 7 8 6 6 6 7 8 8 7 7 6 8
8 9 11 12 11 10 12 11 9 10 10 10 10 10 9 10 9 10 9 8 7 8 7 6 7 6 7 8 8 7 7 8 8 8 8 7 7 6 6 6 6 6 6 7 7 5 5 5 4 3 4 7 6 5 5 4 2 6 5 5 4 5 8 8 9 10 9 8 8 7 7 8 9 8 6 6 6 7 8 8 7 7 7 7 8
12 12 11 11 11 10 11 10 10 11 10 11 10 11 9 8 8 5 8 5 5 7 6 7 7 7 7 7 8 8 8 8 8 8 7 7 7 7 6 6 6 6 6 6 6 7 6 7 6 7 5 2 3 2 6 7 5 1 1 2 5 4 2 2 6 9 9 8 6 7 9 7 10 8 6 5 6 8 8 7 8 8 8 8 8
9 8 8 11 10 10 10 11 11 10 10 11 11 9 9 7 6 5 6 6 6 5 6 6 7 6 7 7 6 7 8 7 7 7 7 7 7 8 7 7 8 7 8 7 7 8 6 6 6 7 5 4 4 6 6 7 6 5 3 5 2 0 8 4 3 5 6 9 7 9 6 8 8 7 5 7 8 7 8 7 8 8 8 8 8
10 11 10 11 9 12 12 12 12 11 10 10 11 8 7 5 5 3 3 2 2 3 5 6 7 6 5 4 6 6 6 7 6 7 7 8 7 8 8 8 7 6 7 6 6 7 8 7 8 7 8 8 8 5 2 4 6 6 6 1 2 1 5 5 4 6 2 3 6 7 6 7 8 8 6 8 6 7 8 8 8 8 9 9 8
11 10 10 11 10 10 9 9 9 9 10 10 11 9 9 9 8 8 7 5 6 5 9 9 5 6 6 4 4 4 5 5 5 5 5 6 7 7 5 7 8 6 5 7 7 6 6 6 7 8 9 8 8 5 4 3 7 7 7 7 6 7 4 2 3 6 2 5 5 3 5 6 7 7 6 6 7 8 7 9 9 9 9 8 8
11 8 7 7 7 8 8 9 10 9 9 9 9 9 9 9 11 10 8 9 9 5 2 2 5 3 3 4 5 5 5 5 5 5 5 6 6 6 7 5 4 4 5 6 6 7 8 9 7 7 9 7 6 8 8 5 2 5 7 10 10 8 4 2 7 3 9 3 2 3 5 6 8 7 7 8 8 8 8 8 9 9 9 9 8
8 6 7 6 8 9 9 9 8 9 8 8 9 9 10 9 9 8 8 8 8 7 5 4 4 4 3 4 3 3 4 5 6 6 6 5 5 4 4 4 4 5 6 7 8 8 5 3 5 4 2 3 5 7 7 6 6 4 6 9 9 8 6 5 6 7 7 10 12 5 5 6 6 7 7 8 9 9 10 8 9 9 9 9 8
6 8 8 7 6 7 8 6 8 7 6 8 9 7 8 8 8 7 7 6 6 6 4 3 6 4 5 2 2 2 3 4 4 4 4 3 3 3 3 3 4 4 5 5 5 5 6 6 5 5 6 6 6 7 6 7 5 8 5 6 5 7 6 6 5 3 6 8 12 8 12 1 3 6 6 8 9 8 9 10 9 9 9 8 8
5 5 4 4 5 5 7 8 7 7 7 6 8 7 7 8 8 7 8 6 4 3 5 4 3 1 3 3 2 2 2 2 1 1 2 2 2 3 3 3 3 3 3 4 4 5 5 6 8 9 9 9 7 8 10 9 8 7 7 5 5 4 5 5 5 5 6 9 12 9 9 11 12 8 5 6 9 10 10 10 10 9 9 9 8
3 5 5 5 5 5 6 7 6 6 5 7 7 8 7 7 8 8 8 7 5 7 6 4 4 4 4 2 2 2 3 3 1 1 1 1 0 0 0 1 0 0 1 1 3 3 3 4 4 4 4 7 6 7 7 7 6 6 8 8 9 8 8 7 5 5 7 6 6 10 10 8 9 12 7 7 8 9 10 8 9 9 9 9 8
Wind_Direction
143 121 118 110 105 98 95 97 96 94 93 95 84 76 80 82 83 82 85 84 81 80 80 83 83 80 82 83 80 79 78 78 78 75 77 78 76 74 75 76 75 73 71 71 71 73 74 72 72 72 70 65 65 64 63 63 65 67 69 70 70 71 71 68 63 61 58 60 65 67 70 78 81 79 77 75 73 71 69 67 64 65 64 66 65
141 123 120 114 109 102 100 98 97 98 97 91 80 80 84 87 88 86 85 81 80 81 84 82 82 87 87 84 82 83 84 84 83 82 80 81 80 78 78 77 76 76 76 74 73 74 75 74 73 73 72 69 68 68 63 63 64 65 68 71 71 71 72 71 67 63 62 62 62 65 69 69 72 80 80 76 73 70 69 71 67 64 64 67 66
122 127 124 109 108 106 97 96 97 95 87 84 91 88 93 98 95 94 92 88 84 82 82 83 83 85 86 86 85 84 81 79 84 80 77 79 81 83 80 79 78 75 73 74 75 75 77 75 75 74 72 72 71 61 60 59 59 62 67 71 74 77 76 72 69 65 62 60 60 57 57 65 73 77 79 77 76 74 70 71 71 68 68 69 68
123 123 111 109 106 104 103 97 92 92 90 86 84 96 99 98 95 94 89 87 87 89 86 83 88 87 84 83 82 81 78 81 80 82 82 81 79 77 77 77 78 79 81 80 78 77 75 77 80 78 75 73 63 59 55 54 53 56 65 73 75 75 75 73 70 67 63 62 61 60 56 49 63 74 80 81 78 77 75 74 73 72 71 69 67
120 122 112 108 109 109 107 103 100 97 93 90 97 99 100 100 97 97 93 94 95 91 90 85 83 83 82 85 83 78 78 79 81 82 80 79 80 78 78 78 78 78 78 77 77 78 79 80 80 79 76 65 58 56 53 51 51 55 68 76 77 76 76 75 72 67 63 62 62 61 49 48 54 65 74 76 76 74 74 73 71 69 68 67 66
126 122 115 113 114 113 109 107 106 108 104 93 97 101 108 104 101 96 96 95 94 89 87 87 86 88 89 83 83 82 79 75 77 78 79 83 83 84 81 79 79 79 77 77 77 78 79 80 79 84 75 64 57 54 52 50 49 53 66 76 78 77 75 73 72 68 65 65 62 61 58 60 70 76 76 80 78 77 75 73 71 70 69 67 65
130 126 119 120 120 120 113 107 104 98 98 91 90 97 100 98 95 101 97 97 97 94 87 89 90 90 85 86 86 84 81 80 83 88 90 85 82 81 81 83 81 80 82 81 80 80 80 80 81 83 79 66 58 55 53 51 51 59 67 78 80 77 74 72 71 71 68 62 60 58 59 56 53 70 79 78 79 76 74 73 71 68 66 66 67
127 124 125 126 125 120 114 111 107 104 97 85 84 94 105 104 97 96 103 96 95 92 100 98 89 86 83 85 87 84 83 86 86 81 80 81 86 83 85 85 85 84 80 80 81 81 82 83 85 85 84 69 61 59 56 56 60 64 67 73 77 76 73 70 66 63 63 61 59 61 60 61 64 72 73 73 74 72 71 73 72 72 72 72 66
125 123 123 125 124 119 117 117 113 110 104 93 95 99 105 108 102 93 101 97 95 97 97 98 98 91 92 86 84 87 89 88 85 83 85 87 87 82 80 78 80 82 83 84 85 86 84 84 85 86 86 73 65 62 60 62 66 69 70 71 73 72 71 71 68 66 66 62 60 58 57 57 60 66 76 78 76 75 71 64 63 71 77 72 69
123 122 122 122 127 125 121 117 115 113 107 103 104 108 106 111 106 95 102 101 98 98 92 88 95 101 95 88 91 91 92 93 90 89 89 88 88 89 90 88 85 86 87 87 85 85 85 84 86 88 81 66 62 61 60 63 68 71 72 73 74 74 71 68 68 64 65 63 61 62 66 70 60 68 77 76 76 78 80 81 80 82 76 70 72
120 123 122 125 133 127 122 119 115 111 107 100 99 101 105 109 105 99 101 103 103 102 100 97 96 96 93 93 92 94 95 89 88 89 89 89 88 86 85 84 81 82 85 86 87 87 87 86 87 85 74 66 62 61 59 60 64 71 75 76 76 75 73 69 68 65 62 63 60 53 67 69 66 69 76 75 72 74 75 72 70 71 68 70 70
120 122 122 129 133 126 120 119 118 114 110 103 98 104 106 111 110 102 101 102 104 106 105 105 104 103 102 104 100 95 91 91 92 91 92 90 91 89 87 84 85 84 85 86 87 87 86 87 89 88 76 66 61 57 57 59 59 66 76 81 80 77 74 70 71 66 63 62 58 52 39 35 61 71 71 71 74 73 67 66 68 69 69 68 69
124 123 123 126 126 125 122 123 120 118 114 109 101 105 114 113 110 105 103 104 105 107 108 105 99 100 100 97 92 92 94 96 97 97 92 91 89 88 88 88 87 87 86 86 84 85 86 85 86 86 78 69 62 58 56 58 60 62 71 82 85 82 79 77 74 71 66 61 58 51 47 45 52 73 77 76 74 71 71 70 68 69 71 69 70
126 125 126 128 132 129 122 123 123 120 115 111 106 96 105 115 114 111 106 103 104 107 107 106 108 110 109 102 100 95 98 101 100 100 99 96 92 91 87 87 88 88 86 84 83 83 84 86 87 85 77 67 62 58 53 50 51 59 66 77 85 87 85 81 80 79 72 59 53 47 52 60 68 73 74 78 78 77 74 72 75 78 78 78 74
131 129 131 130 133 131 126 124 122 119 117 112 108 104 92 92 101 103 106 106 106 103 105 104 109 113 108 108 102 98 85 87 102 92 90 89 88 87 85 87 87 86 84 82 81 81 82 84 84 84 77 67 61 57 53 53 55 56 62 66 81 85 87 86 84 80 70 60 50 52 55 66 76 76 76 77 78 85 91 89 85 74 72 70 68
133 130 131 133 138 134 127 123 119 118 117 113 106 101 97 97 106 108 110 111 107 107 106 108 86 86 110 111 98 86 78 71 69 89 101 95 90 92 94 89 89 90 90 89 87 85 85 86 84 82 76 67 63 60 54 54 55 52 53 53 57 83 84 77 72 68 73 70 60 55 44 68 83 83 82 83 84 70 67 69 67 70 75 69 66
132 129 136 139 143 140 133 127 124 115 113 113 110 106 103 88 100 115 113 107 107 109 104 88 88 85 82 80 82 83 81 76 73 68 70 83 85 83 88 91 85 84 85 85 83 82 83 84 82 79 70 63 61 58 52 47 45 41 38 39 41 52 76 87 85 82 80 73 64 48 58 54 74 80 83 81 70 68 77 79 77 74 74 78 80
135 133 142 145 146 142 134 131 127 119 118 113 113 114 107 100 98 104 112 116 112 96 90 95 93 86 80 87 86 85 83 77 71 73 78 77 76 78 83 87 87 85 85 85 85 86 87 87 85 81 76 68 60 56 46 42 40 34 31 33 37 75 87 87 87 85 87 82 81 68 71 99 88 83 77 80 89 76 70 63 69 72 68 77 70
139 138 142 149 149 144 139 138 134 130 127 123 119 116 112 106 106 106 108 112 110 106 101 103 102 97 93 95 96 92 86 83 81 86 88 85 82 77 80 84 89 90 89 87 89 88 89 90 91 86 78 75 67 54 38 31 26 25 22 25 31 67 88 90 92 85 80 83 83 98 92 80 84 92 112 89 70 70 74 81 74 74 87 80 89
144 143 150 156 152 150 148 146 142 142 137 130 123 119 116 111 108 107 109 116 119 115 112 109 108 105 108 108 105 97 91 86 88 85 87 87 86 89 87 91 95 97 91 92 89 94 93 92 90 86 80 74 67 52 27 21 21 17 16 20 26 79 91 95 94 89 80 68 60 31 117 103 98 90 73 81 78 76 74 78 87 89 78 80 73
146 150 154 160 154 152 155 153 152 152 143 135 129 119 114 110 107 111 114 119 123 121 116 114 111 115 113 115 108 108 107 100 90 94 85 87 88 86 89 87 90 87 90 91 95 93 93 97 105 104 105 96 83 63 24 8 14 7 10 8 40 72 95 95 95 91 80 68 55 47 72 72 87 95 84 69 88 83 78 79 102 105 82 79 83
158 154 159 157 152 156 159 160 156 159 149 144 138 132 135 123 121 123 118 119 121 121 123 128 131 137 138 133 131 133 122 112 106 101 101 95 92 97 97 99 96 89 87 97 95 96 103 104 111 118 119 100 97 93 35 354 1 355 1 16 34 83 81 102 108 107 96 70 46 30 113 135 167 81 78 101 75 90 85 87 59 84 78 80 83
171 165 166 157 159 157 160 164 164 161 152 147 144 148 145 140 140 132 131 133 138 135 139 141 151 155 167 164 154 135 134 126 125 122 113 109 109 106 104 103 102 99 96 89 87 97 112 119 114 127 111 52 9 339 325 316 316 319 9 18 11 83 93 102 108 117 118 107 61 40 340 65 69 78 93 89 99 85 93 121 103 55 88 94 85
178 179 176 166 159 160 165 167 164 157 149 147 146 153 153 151 149 145 142 146 150 149 153 155 168 175 171 181 148 135 137 124 124 121 115 110 104 104 109 108 108 109 108 103 103 90 66 52 47 22 359 335 327 310 303 290 298 319 4 354 32 87 100 109 113 116 125 120 87 75 69 97 87 92 104 86 100 99 74 74 94 82 48 48 105
179 179 175 179 164 165 164 164 158 152 144 149 151 162 162 157 158 155 157 159 163 163 164 164 182 191 178 191 159 143 141 135 138 131 127 128 127 128 126 129 135 129 124 127 131 134 106 271 307 327 254 261 268 262 264 289 320 316 352 334 180 106 104 116 125 125 137 123 116 106 115 102 132 144 105 111 114 115 108 107 100 91 114 106 104
170 174 191 189 177 167 166 163 158 156 152 155 161 168 162 164 165 166 161 174 173 171 174 172 185 206 171 190 141 149 142 139 144 142 142 144 144 154 158 155 154 166 153 147 163 155 195 224 230 237 238 199 232 211 205 215 270 287 292 284 161 115 125 129 134 139 147 137 142 136 136 160 227 139 122 132 183 126 116 156 114 137 199 174 107
179 188 186 188 182 172 164 154 162 158 157 160 160 164 174 171 168 166 164 180 179 171 186 176 183 203 171 166 143 153 145 149 153 156 159 160 162 172 175 174 176 181 186 155 191 185 188 212 227 231 254 257 200 144 170 179 186 77 234 187 92 106 139 139 142 153 157 157 172 150 163 224 272 319 136 167 246 156 131 219 137 133 145 316 143
175 184 187 183 183 179 170 155 161 160 164 164 163 173 176 170 170 170 171 176 172 178 184 183 183 191 179 166 170 150 155 158 170 172 175 172 181 188 184 177 189 205 190 170 186 200 185 207 220 243 218 206 82 317 354 38 271 140 70 10 50 108 161 182 146 159 163 170 183 179 187 205 239 282 173 215 191 204 168 214 234 156 183 194 296
183 181 185 181 185 177 172 165 161 163 163 162 167 177 174 168 164 172 172 172 180 179 180 178 174 184 183 160 163 158 154 166 174 194 165 184 194 196 187 188 184 209 169 185 178 191 197 199 220 214 197 169 199 242 270 289 276 288 155 237 236 65 117 184 172 158 171 177 185 205 215 238 203 257 229 244 230 206 208 195 214 221 212 180 182
186 181 179 183 181 174 174 172 167 167 165 156 165 171 177 163 170 169 168 165 179 182 171 171 178 173 187 175 167 172 167 175 185 193 171 191 196 192 187 187 185 196 171 177 199 173 196 228 231 202 190 206 207 225 203 242 281 289 290 213 221 225 159 164 191 171 176 183 192 209 211 226 233 230 236 237 256 249 236 233 193 231 219 242 212
176 183 180 180 177 170 175 172 167 167 164 169 160 173 172 169 169 167 159 168 171 172 178 170 161 181 183 181 176 175 171 176 182 186 189 179 190 182 182 176 188 189 184 184 186 188 193 205 205 205 203 215 216 216 197 219 252 272 246 225 234 206 203 179 194 178 170 193 202 203 219 224 231 229 217 227 242 241 237 237 208 238 236 251 210
184 181 180 171 170 174 173 173 168 168 168 176 171 168 175 171 171 164 169 173 167 170 177 182 163 177 186 186 177 189 180 162 185 187 179 180 182 183 187 165 200 202 189 182 180 199 190 208 208 207 208 199 218 211 208 201 237 260 240 215 239 240 241 243 208 199 188 196 203 209 212 217 227 233 226 227 240 251 265 245 236 253 240 231 244
196 178 174 167 173 173 169 174 168 169 173 179 180 178 170 168 168 174 171 172 174 170 182 189 180 173 175 186 187 190 196 182 176 196 193 178 177 177 188 190 198 197 193 187 182 195 192 206 240 226 200 196 244 260 255 224 220 256 276 252 200 212 232 244 254 238 214 203 202 206 211 216 220 230 235 233 238 252 260 270 277 269 246 240 256
185 185 166 173 172 172 170 169 169 172 177 177 178 178 179 171 166 173 172 173 176 179 189 192 192 186 172 175 185 193 196 196 170 182 186 191 181 179 183 198 202 195 190 183 184 188 196 191 223 191 225 213 237 253 216 245 249 248 261 260 240 224 210 227 239 230 234 217 195 202 215 216 223 229 233 236 237 241 252 260 263 271 268 252 250
171 181 178 174 170 171 172 178 172 173 172 174 177 178 175 173 170 167 175 173 178 182 189 191 193 197 183 178 176 181 188 183 157 157 180 191 185 187 187 196 192 188 186 193 179 191 189 206 186 204 239 248 254 272 221 234 242 249 252 251 227 227 224 224 229 230 207 232 188 206 211 212 219 231 240 246 245 243 243 246 252 257 266 255 244
182 181 180 165 172 172 175 176 174 174 180 173 172 173 176 176 178 170 163 178 180 184 187 191 191 193 193 188 180 175 180 185 172 141 159 189 193 190 195 193 193 182 191 186 170 185 199 203 213 189 215 250 255 265 264 261 252 252 257 256 245 227 220 225 232 229 228 214 239 245 246 237 229 228 230 239 251 255 253 254 258 259 262 266 252
189 178 178 173 171 175 176 175 178 179 180 173 171 173 178 185 186 183 166 174 184 191 193 191 189 189 192 193 193 182 190 196 197 196 180 212 207 214 207 191 187 188 190 187 185 192 186 201 219 213 194 221 224 247 262 251 258 251 258 256 244 222 217 217 225 230 252 247 247 241 245 244 244 244 238 233 236 244 257 256 254 254 255 260 263
192 186 181 179 175 174 178 179 180 175 177 178 176 177 183 183 189 193 185 179 189 190 194 190 197 193 184 190 191 196 191 193 193 195 211 208 215 211 215 194 180 189 194 185 200 188 187 186 218 217 199 197 210 213 234 244 246 250 250 243 235 212 220 223 224 230 224 245 248 249 244 250 245 244 243 239 236 242 250 260 265 265 262 261 259
190 187 182 183 175 172 173 176 174 171 175 176 177 174 177 186 188 191 205 204 195 196 189 194 192 192 195 190 187 192 198 195 192 196 202 222 224 217 213 216 192 185 184 187 184 192 203 199 204 228 217 212 201 202 216 223 240 245 244 248 265 263 285 284 286 262 249 237 238 240 239 244 241 245 241 240 239 238 244 248 252 252 254 253 254
187 183 180 179 179 173 173 171 176 167 168 175 171 171 170 183 192 202 207 211 207 200 204 192 186 195 199 191 193 198 193 196 202 202 203 207 217 220 218 209 200 184 187 184 193 192 209 207 219 210 227 245 234 210 194 193 215 239 251 264 259 268 270 263 266 255 252 246 245 241 239 241 236 244 240 239 238 241 242 245 243 244 244 252 253
187 183 181 183 182 178 169 181 182 170 167 173 179 178 182 182 191 199 206 203 203 202 204 201 194 198 196 199 199 199 195 197 199 196 205 206 213 217 220 223 204 193 196 206 206 213 210 201 205 195 208 227 241 206 209 143 171 286 272 261 273 244 244 241 244 245 239 242 242 241 244 247 243 244 242 238 237 238 241 244 246 246 248 249 260
198 187 189 189 184 174 179 182 177 180 180 179 182 188 192 192 186 195 190 190 195 200 209 208 204 198 197 201 203 202 197 197 199 201 204 203 209 214 215 218 208 207 208 211 214 210 199 202 192 213 215 211 227 191 199 141 239 229 260 310 295 273 240 229 239 245 242 243 238 239 240 239 245 243 246 238 242 239 240 242 246 248 247 247 250
192 191 190 185 186 180 186 181 180 182 187 184 181 195 196 195 191 180 177 181 211 201 197 200 201 206 203 200 201 199 197 203 199 198 202 205 206 207 213 214 212 202 207 215 208 208 203 203 194 201 227 268 249 212 197 191 226 99 69 356 290 326 337 316 259 255 249 246 236 237 237 240 246 246 244 244 246 248 245 242 244 243 245 244 246
194 196 187 187 188 186 186 183 184 185 187 190 191 194 191 190 191 167 180 174 182 195 202 206 206 207 215 201 201 196 198 196 190 194 199 202 202 206 210 212 217 206 205 206 203 212 202 208 203 211 185 231 226 236 201 204 185 124 284 214 244 125 308 290 307 278 224 242 228 236 231 239 248 252 240 239 245 249 253 250 249 247 249 250 248
195 194 189 188 188 189 187 185 185 186 188 186 188 177 164 170 171 152 138 111 39 157 181 217 208 206 203 183 203 193 198 203 195 189 191 201 203 207 209 215 216 203 197 206 209 214 211 207 199 195 195 214 239 241 233 200 213 207 196 89 304 282 227 283 342 278 212 263 245 233 235 238 243 244 233 245 250 252 253 254 250 251 250 248 250
197 199 195 192 187 187 183 182 185 188 187 185 182 173 177 173 170 173 179 187 191 179 199 200 194 195 205 203 195 194 194 199 200 206 205 210 215 209 205 209 209 197 190 203 212 211 214 207 205 205 211 211 218 233 239 216 222 222 234 239 238 265 280 223 29 294 334 214 242 222 235 235 247 249 239 247 248 250 243 252 250 250 248 247 246
205 194 191 193 190 185 185 181 183 189 189 183 177 171 178 183 186 189 183 187 190 215 200 171 171 207 181 189 200 195 196 191 205 209 219 221 221 216 220 210 198 199 201 203 207 209 211 211 208 205 212 208 195 229 233 228 201 250 233 240 255 259 240 243 251 308 296 308 281 228 246 223 239 235 237 238 241 245 247 240 248 248 247 245 241
191 178 193 192 189 188 185 186 182 183 188 180 178 176 175 179 180 184 179 182 192 190 181 186 192 172 179 206 207 218 204 200 204 213 218 212 212 221 215 218 219 219 207 211 214 214 214 213 197 216 231 204 203 223 238 218 205 238 199 235 245 262 276 263 251 243 274 292 290 271 218 228 228 237 221 236 236 238 247 244 245 244 247 244 238
175 188 193 192 189 185 182 179 182 180 185 179 177 178 165 166 169 168 180 202 178 186 177 147 162 177 177 201 186 237 227 225 211 195 190 186 184 208 224 235 237 242 222 224 220 205 198 186 178 190 202 212 205 221 237 241 212 243 207 245 242 248 257 251 260 225 237 264 274 268 288 251 256 243 229 224 240 237 241 246 242 242 242 243 235
195 180 169 157 170 170 177 178 183 176 170 167 168 163 153 149 155 168 175 187 164 156 133 115 101 116 166 203 180 109 95 90 55 104 144 160 175 196 208 225 233 244 233 229 210 203 204 207 205 203 205 207 203 207 219 232 232 235 217 215 202 236 244 261 239 232 251 234 260 268 272 285 289 276 203 227 237 239 241 239 243 244 241 241 237
152 157 162 159 155 158 164 172 176 158 152 156 155 158 156 157 164 174 175 169 166 152 138 125 114 108 158 175 143 127 92 94 87 57 152 133 70 103 192 238 267 315 235 262 263 250 251 246 249 255 245 231 229 227 231 247 250 238 226 217 228 220 231 233 229 207 223 243 259 260 262 249 247 278 263 217 234 242 243 236 239 241 239 239 239